Tracking 26911 objects as of 8-Feb-2023
HD Live streaming from Space Station
objects crossing your sky now

SL-8 R/B

Track SL-8 R/B now!
10-day predictions


NORAD ID: 7284
Int'l Code: 1974-028B
Perigee: 1,370.4 km
Apogee: 1,395.3 km
Inclination: 74.0 °
Period: 113.2 minutes
Semi major axis: 7753 km
RCS: 5.3325 m2 (large)
Launch date: April 29, 1974
Source: Commonwealth of Independent States (former USSR) (CIS)
Launch site: PLESETSK MISSILE AND SPACE COMPLEX (PKMTR)

Note: This is a ROCKET BODY
Your satellite tracking list
Your tracking list is empty




NASA's NSSDC Master Catalog

Two Line Element Set (TLE):
1  7284U 74028B   23039.35552331  .00000019  00000-0  17644-3 0  9991
2  7284  74.0435 347.5482 0016100  53.3288 117.7978 12.71530343264401
Source of the keplerian elements: AFSPC